Race Results for
Mount Snow-Shimano NMBS Finals
West Dover, VT
(Event Information)
Cross Country on 08/27/2005

Note: Ranking points are NOT upgrade points. An explanation of ranking points can be found here.


Men - SP - Junior - 1-16

 Place Points NameCity, StateTime USAC #BibTeam
1PETE OSTROSKI   1:19:34.30  884 
2Ramsay Fretz   Burlington, VT1:28:45.40 213340  1234 BLISS
3SAM DARLING   1:34:11.25  1060 BLISS RACI
4Zachary Edwards   Boulder, CO1:35:20.68 213958  554 
5Nathan Fuchs   Brimfield, MA1:37:22.05 228017  1304 
6Chris Stern   West Milford, NJ1:39:54.16 200189  728 
7Zachary Felpel   Willowstreet, PA1:40:40.12 220467  827 SKIRKS BIK
8Matthew Keiper   Warrenton, VA1:41:39.85 156519  804 WASHINGTON
9Andy Gallagher   Newfoundland, NJ1:44:26.28 213824  687 TOWN CYCLE
10Liam Wallace   Flint Hill, VA1:46:34.23 228718  768 BIKESTOPAT

Men - SP - Junior - 1-18

 Place Points NameCity, StateTime USAC #BibTeam
1Paul Bickford   Chester, CT1:28:33.06 200820  956 CW-X/COMPE
2Mike Chin   Cheshire Ct1:35:21.33 210942  1310 
3NATHAN PEPIN   1:38:32.42  1205 
DNFPeter McMahon   Chester, CT 229342  487 CRANE MTN

Men - SP - Senior - 19-24

 Place Points NameCity, StateTime USAC #BibTeam
1ADAM BRADLEY   1:25:02.23  1250 
2ERIC CARLSON   1:31:18.54  1265 BIKERS EDG
3ALFONSO DIMEO   1:31:30.53  1057 WINDHAM MO
4Randy Myers   Chester, CT1:33:33.66 187425  463 ROCKNROAD
5DAVE PAYNE   1:34:28.52  1172 
6ADAM BICKFORD   1:36:02.02  1277 
7Dante Petri   Saratoga Springs, NY1:36:06.27 230506  750 
8Patrick Snoop   Monroe, NY1:42:53.02 106358  1271 
9Brian Savery   North Falmouth, MA1:43:28.18 209996  1268 HARPOON BR
10SEAN BARTLETT   1:48:13.24  891 RADICAL ED
11Daniel Fama   Westfield, MA1:57:35.50 226286  828 LAFLAM INC
12JEFF MONAGHAN   2:01:56.44  946 
DNFJACK GRZYBEK     1302 RABID RACI

Men - SP - Senior - 25-29

 Place Points NameCity, StateTime USAC #BibTeam
1JOHN KINNEE   1:23:37.47  863 
2CHRIS GAJESKI   1:27:20.26  1286 
3Brandon Eller   Hendersonville, NC1:29:10.09 202353  1217 SYCAMORE C
4JOEL BUDACKI   1:30:03.66  579 
5JEREMY JOHNSON   1:38:37.23  1261 ALL TERRAI
6MATTHEW MAJKA   1:40:46.09  873 TEAM BULLD
7MIKE ZANCONATO   1:48:20.15  408 ZANCONATO
8CHRIS GIBSON   1:52:14.08  843 
9Jason Selwitz   Rensselaer, NY1:55:24.29 216632  766 PEDROS ADI
10SHAWN PARNELL   1:56:55.89  483 
DNFELI STERTZ     449 
DNFAaron Christenson   Hillsboro, NH 210923  890 JAKES BIKE
DNFPierre Vanden Borre   Jamaica Plain, MA 4296  418 
DNFJoshua Schoenfeld   Bedford, NH 210332  1255 MTBMIND

Men - SP - Master - 30-34

 Place Points NameCity, StateTime USAC #BibTeam
1COREY DUBOIS   1:25:32.13  642 
2JONATHAN BERNHARD   1:27:59.16  991 EMS
3JUAN MUNSTER   1:30:59.46  1307 
4Joe Policarpio   Bristol, CT1:31:48.96 135669  1056 TEAM EDGE/
5John Painter   Starksboro, VT1:31:50.60 124654  607 EARLS BIKE
6LUIS GARCIA   1:33:24.80  921 PROXTEL
7ANTHONY GALLO   1:36:36.45  1308 
8ANDREW ROBINSON   1:38:48.90  1282 BIKEMAN
9Derek Burkins   Jericho, VT1:38:57.55 113753  586 GMBC/CATAM
10Carl Maslag   Point Pleasant, NJ1:39:47.50 220160  693 
11BRYAN STRZELEC   1:41:17.14  1090 MUD SWEAT
12Chris Byrnes   Pompton Plains, NJ1:42:13.68 224438  611 TOWNE CYCL
13ALEXANDER PEARSON   1:45:49.22  1184 BEASTS OF
14JASON CHLOPECKI   1:48:37.17  568 
15DAMIEN TALESE   1:50:21.20  1257 
16Glenn Kalnins   Fortson, GA1:51:27.86 145873  791 MIKES BIKE
17Nathan Layman   Bridgewater, MA1:56:03.40 161022  694 
18Andrew Fleming   Windsor, CT2:00:11.74 228019  1252 CRANKFIRE
19KEVIN DEWHURST   2:14:32.49  830 TEAM DIDIO
DNFMICHAEL ROMANOVSKY     456 HUDSON VAL
DNFJOSEPH STEIN JR     618 
DNFJohn Gibbons   Norwell, MA 224572  541 
DNFSTEVE MEILICKE     1305 
DNFKEVIN SMITH     764 

Men - SP - Master - 35-39

 Place Points NameCity, StateTime USAC #BibTeam
1Michael Wade   North Syracuse, NY1:25:06.31 171799  782 
2JOHN DALY   1:30:31.10  1303 GREEN MTN
3Chris Ward   Etowah, NC1:31:41.05 200732  1219 SYCAMORE C
4Ray Santora   New London, CT1:32:07.06 105356  1199 3HARDCRANK
5Douglas Southwick   Rensselaer, NY1:34:15.76 177701  787 
6GLENN BEAUCHESNE   1:35:59.24  1227 LEWIS TREE
7Brian Mieczkowski   Goshen, NY1:39:48.43 223207  477 RABID RACI
8Jim Vreeland   Penfield, NY1:40:36.01 150995  412 
9SYLVAIN LOIZE   1:41:17.99  1274 TEAM BLED
10GREGORY TEESE   1:41:38.89  784 
11JUAN DELGADO   1:41:56.84  1292 SHIRKS BIK
12Eric Policarpio   Bristol, CT1:43:10.62 159499  481 BIKERS EDG
13Robert Pratt   North Bennington, VT1:43:13.47 149365  987 
14ANDREW BOWERSOX   1:43:32.67  581 
15JOHN SCOTT   1:45:15.61  979 
16Michael Pajarillo   Hope Valley, RI2:04:23.04 114646  1276 TEAM BLED
17RICHARD JONES   2:34:21.99  861 
DNFScott Jeziorski   Orchard Park, NY 134239  498 

Men - SP - Master - 40-49

 Place Points NameCity, StateTime USAC #BibTeam
1David Schachte   Woonsocket, RI1:30:28.20 169209  886 UNION VELO
2PAUL MADONNA   1:32:09.59  633 
3Nick Bove   Windham, NY1:32:39.48 148593  1092 WINDHAM MT
4TOM BRUTSAERT   1:32:44.80  655 
5PATRICK WEILER   1:32:55.25  1028 
6DAVID ROLLO   1:33:02.33  1141 
7SCOTT MEURER   1:33:11.30  798 
8David Skrocki   Keene, NH1:33:16.94 227104  452 
9Walter Pacosa   W Springfield, MA1:33:42.04 183960  744 
10Paul Wojciak   Poughkeepsie, NY1:33:42.36 230224  594 
11JEFF FOWLER   1:33:50.67  1313 
12DAVID VAN WART   1:34:46.54  719 TOWN CYCLE
13Edward Rosipayla   Spencerport, NY1:34:58.20 178141  430 SINGNANDLO
14Paul Rosica   Madison, NJ1:34:59.01 75747  443 
15KRIS FRANCIS   1:35:09.84  552 
16BILL ARMBRUSTER   1:35:49.94  1236 GUYS BIKES
18STEPHEN GORMAN   1:36:20.27  1298 
19MICHAEL WOODWARD   1:36:20.64  1070 
20JOHN TALOUMIS   1:37:07.95  434 
21Mark Fasczewski   Greensboro, NC1:37:57.10 112145  815 OUTDOOR CH
22MIKE METCALFE   1:38:50.07  1232 
23WARREN BABSON   1:39:53.88  1126 
24Steve Wirz   Lagrangeville, NY1:40:02.16 227475  759 PAWLING CY
25Gerald Oleksak   Westfield, MA1:41:01.45 154663  973 SHIRKS
26ROD CIARDULLO   1:42:40.97  559 SYNERGY FI
27DAVID DEGANGE   1:43:00.03  826 
28DAVID MICHAUD   1:43:54.55  1026 MTBMIND.CO
29Matthew Scherp   E Hampton, CT1:46:27.17 202068  1239 BIKERSEDGE
30MATTHEW JUROS   1:46:34.01  515 
31MARTEN HOEKSTRA   1:46:51.31  536 
32MIKE PURCELL   1:47:04.72  704 BERKLEY &
33PAUL SERAFIN   1:53:24.42  790 KINGSBURY
34Matthew Snow   Fairfield, CT1:53:27.66 112195  774 DON'S CYCL
35DAVE FITZGERALD   1:53:32.49  1233 
36GARY BONENFANT   1:53:53.34  1012 
37JOHN WILSON   1:55:56.43  767 
38JEFF WARREN   1:56:11.84  726 SEBAGO
39MARK FITZSIMMONS   1:56:55.08  1071 
40Eric Marcus   Larchmont, NY1:57:06.03 136740  799 
41WARREN LEIGH   1:58:54.12  511 SPRINGFIEL
42ZACHERY LEAVITT   2:03:23.87  866 
43JAMES GAMBINO   2:05:50.94  543 
44ALAN GROSS   2:07:50.33  1237 
45John O'Keefe   Coatesville, PA2:08:35.66 221845  462 TEAM BERLI
DNFBarry Groton   Williamsburg, VA 177579  684 CALRMONT C

Men - SP - Master - 50-99

 Place Points NameCity, StateTime USAC #BibTeam
1MIKE DONOHUE   1:33:46.72  555 PUTNEY WES
2ROBERT ZACCAREO   1:44:48.58  1254 
3Ronnie Poplar   Wilmington, VT1:51:35.16 47301  470 
4STEPHEN ROLFE   1:56:15.41  1243 
5ROBERT ODONNELL   1:58:00.59  1075 
DNFMatthew Davies   Poughkeepsie, NY 74221  550 HVVC

Men - SM

 Place Points NameCity, StateTime USAC #BibTeam
1Donny Vaillancourt   Santa Clara, CA2:27:36.93 180176  238 GIANT/GORH
2Jeff Schalk   Frederick, MD2:29:40.45 169390  203 BIKEWORKS
3Brandon Draugelis   Shippensburg, PA2:30:13.13 179397  210 CANNONDALE
4Paul Hanson   St Peter, MN2:32:27.58 118046  233 NICOLLETBI
5Justin Finn   Corvallis, OR2:34:39.75 199346  209 
6Justin Lindine   North Ogden, UT2:35:32.57 205717  239 WINDHAM MT
7Eric Kriberney   Butler, PA2:36:34.73 207097  206 SPECIALIZE
8Rick Wetherald   Logan, UT2:38:39.16 188971  231 TAMARACKRS
9Lawrence (Skip) Brown   Somerville, MA2:38:44.87 5155  215 SEVEN CYCL
10Justin Rinehart   Mankato, MN2:38:59.96 149501  232 CANNONDALE
11Roland Meunier   Templeton, MA2:40:35.45 138682  220 BICYCLE AL
12Justin Desilets   Riverton, UT2:40:40.38 209451  221 KONA MIDWE
13Ross Scatchard   Charlotte, VT2:41:01.09 150904  202 BLISS RACI
14Tim Dougherty   Glenside, PA2:42:08.70 73274  242 CANNONDALE
15Jed Schober   Lititz, PA2:43:26.27 137636  240 GRETNA BIK
16Kurt Schmid   Marblehead, MA2:43:47.08 178460  212 LANDRYS BI
17Jordan Kahlenberg   Morrisville Pa2:43:51.55 152298  205 GRETNA BIK
18Robert Herber   Murrieta, CA2:44:30.76 153464  207 INTENSE/IE
19Michael Raney   Santa Fe, NM2:44:34.93 175669  229 
20Darrell Prillaman    Chapel Hill, NC2:46:48.02 28718  237 SUNSHINE C
21Rob Moran   Cary, NC2:46:52.38 89780  218 
22Robert Lichtenwalner   Nazareth, PA2:47:50.45 156385  227 CANNONDALE
23Jon Rowe   Bennington, VT2:48:29.56 30742  204 NAV/PADROS
24Jamie Goldstein   Santa Barbara, CA2:49:04.95 202519  216 PLATINUM P
25Peter Ehmann   Bloomfield Hills, MI2:51:32.88 200606  208 KONA MIDWE
26Chris Gagnon   Watertown, MA2:51:41.33 179645  223 MTBMIND.CO
27Benjamin Souza   Boone, NC2:53:10.98 88873  222 GRETNA BIK
28James Williams   Bend, OR2:53:27.29 186063  246 STEVEN K S
29Brian Wolff   Sound Beach, NY2:55:24.73 92298  252 
30Darren Lightfield   Boise, ID2:55:35.13 197708  253 TAMARACK
31Brian Lariviere   Morristown, NJ2:56:16.06 93139  228 TM BULLDOG
32Anthony Eisley   Norwich, CT2:56:16.31 117285  213 COGWILD/CT
33Jason Hilimire   Lafayette, CO2:57:09.38 165165  217 GARY FISHE
34Donald Snoop   Beverly, MA2:57:48.88 82776  249 
35Joseph Stone   Dunbar, WV2:58:47.79 188650  245 DIRTBEAN.C
36Colin Izzard   Brevard, NC2:59:54.15 17483  326 CARMICHAEL
37Greg Montello   Malden, MA3:03:17.47 24794  226 ECV ELITE
38Patrick Wallace   Ellicottville, NY3:03:50.14 80674  201 MUD SWEAT
39James Driscoll   Park City, UT3:04:11.79 163112  247 BLISS RACI
40Brooke Scatchard   Burlington, VT3:06:57.37 147055  219 SOBE/CANNO
41Thom Parsons   Wrentham, MA3:07:30.48 208960  251 INDEPENDEN
42Travis Werts   Brentwood, TN3:16:07.60 159867  250 SCOTT
DNFBrett Racine   Stowe, VT 174981  243 JAMIS/CATA
DNFJonathan Bruno   Boston, MA 159158  248 INDEPENDEN
DNFChris Peariso   Amherst, WI 139566  236 GEAR N UP
DNFMichael Scanlon   Snowmass Vlg, CO 115426  234 AJAX/RA NE
DNFRobert Giannini   Monroe, CT 105754  225 NORTH EAST
DNFScott Fleckenstein   Richmond, VT 174595  224 CATAMOUNT/
DNFRobert Anderson   Mill Valley, CA 1688  214 FRALOCK
DNFJoshua Dillon   Stowe, VT 174590  211 

Men - Cat 1/2/3

 Place Points NameCity, StateTime USAC #BibTeam
1Travis Brown   Durango, CO1:55:15.70 5171  1353 TREK/FRS P
2David Labarr   Fort Collins, CO1:59:38.99 20065  802 TAMARACK
3Jonathan Bruno   Boston, MA2:01:01.88 159158  1370 INDEPENDEN
4Greg Montello   Malden, MA2:06:14.27 24794  1363 ECV ELITE
5Carl Kresser   Brooklyn, CT2:06:49.22 19830  803 
6Lawrence (Skip) Brown   Somerville, MA2:08:37.71 5155  673 SEVEN CYCL
7Andrew Crooks   New York, NY2:10:58.88 103441  670 NYC VELO
8Tiffany Mann   Somerville, MA2:26:13.46 102493  689 INDEPENDEN
9Russell Cadogan   Plymouth, MN2:50:13.05 129574  570 SIDS BIKES
DNFTROY OSTRANDER     711 
DNFRichard Rude   Redding, CT 189124  1175 CYCLE CENT

Men - EX - Junior - 1-16

 Place Points NameCity, StateTime USAC #BibTeam
1FRANCIS MORIN   2:34:20.61  476 SPORTIF-BR
2Gregory Carpenter   Durango, CO2:46:18.09 191158  578 CANNONDALE
3Chris Peterson   Sandy Ut2:50:02.80 202966  460 BALANCE BA
4Jerome Townsend   Princeton, MA2:53:00.82 196503  421 COYOTE HIL
5ADAM LAROCHELLE   3:13:32.98  634 
6Ethan Gilmour   Ludlow, VT3:15:25.09 175603  1144 COYOTE HIL
DNFRyan Woodall   Ocala, FL 153440  1016 SANTOS BIK
DNFLawrence Warbasse   Traverse City, MI 215167  411 

Men - EX - Junior - 1-18

 Place Points NameCity, StateTime USAC #BibTeam
1Tristan Uhl   Austin, TX2:35:42.60 168160  616 BALANCE BA
2Kyle Hammaker   Marysville, PA2:36:15.00 194193  1036 TREK VW
3Mitchell Peterson   Salt Lake City, UT2:41:45.74 192669  471 BALANCE BA
4David Scherp   East Hampton, CT2:46:01.50 182798  1238 BIVERS EDG
5Austin Carroll   Orange, CA2:50:07.84 192670  736 BALANCE BA
6Ryan Buerman   Pinckney, MI2:52:59.44 193513  730 YOUTH CYCL
7Shane Gouldthread   Weedville, PA2:55:12.67 220647  1091 ULTIMATE S
8Kirk Turner   Bellingham, WA2:56:40.46 192168  420 FUGI
9Bradford Perley   Brevard, NC2:56:41.14 192115  472 
10CORY HANCOCK   2:58:38.99  539 BAYCYCLE/3
11Joseph Adams   Montgomery, VT3:01:20.47 144449  1061 BLISS RACI
12Eli Smith   York, PA3:02:45.30 225345  437 GUNG HO BI
13John Purvis   Parthenon, AR3:05:33.30 200977  1038 NWA BUSHME
14Caley Fretz   Boulder, CO3:10:48.23 178443  1059 BLISS RACI
15Paul Davis   Midvale, UT3:11:48.20 196139  1051 TRI POWER
DNFTravis Mann-Gow   Fairfax, VT 200765  868 BLISS RACI
DNFTrevor Dericks   Denville, NJ 199764  1187 SKYLANDS C
DNFTravis Livermon   Lewisville, NC 161583  625 PACESETTER
DNFJAMIE TYLER     602 
DNFNicholas Leigh   Springfield, MA 189574  494 BIKERS EDG
DNFCOREY CONNELL     1198 

Men - EX - Senior - 19-24

 Place Points NameCity, StateTime USAC #BibTeam
1Ryan Woodall   Ocala, FL1:52:58.88 153440  1016 
2Nathan Winkelmann   Huntsville, TX1:55:23.05 188575  409 EDWARD JON
3MICHAEL ANDERSON   1:59:12.38  1221 
4Matt Miller   Nazareth, PA1:59:29.60 206833  797 CURTS CYCL
5Brian Firliet   Rutland, VT2:00:21.49 183891  841 COYOTE HILL
6Dan Hock   Northfield, VT2:00:56.33 194849  839 TEAM BULLD
7Justin Raynes   Bozeman, MT2:03:17.62 197456  713 DIRTBEAN.C
8Ryan MacDonald   Minneapolis, MN2:04:45.71 162185  1372 COLAVITA R
9Tim Allen   Golden, CO2:05:25.22 161831  596 NAU
10Jonathan Awerbuch   Boulder, CO2:06:58.98 206355  590 
11SIMON THERIAULT   2:09:40.28  754 EQUIPEBRUN
12Daniel Smith   Fayetteville, AR2:10:47.89 176262  1067 HIGHROLLER
13Kevin Montgomery   San Francisco, CA2:17:33.10 164746  1367 
14Jason White   Esopus, NY2:25:47.04 194309  1087 HONEY STIN
15Steven Whitley   Cadillac, MI2:27:07.43 197568  780 CITY BIKE
16Brian Martina   Boulder, CO2:29:05.85 161969  489 TOWNERS BI
17Pete Hall   Eden Prairie, MN2:29:13.12 199845  1230 YOUTHCYCLI
18Ian Swayne   Pittsburgh, PA2:32:31.71 95960  1270 
19David Diamond   Westford, VT2:34:17.40 189410  823 EARLS
DNFBrian Penney   Middletown, CT 209465  482 TEAM BERLI
DNFMatthew Montross   Waterbury, VT 165570  485 KINGSTON C

Men - EX - Senior - 25-29

 Place Points NameCity, StateTime USAC #BibTeam
1Ryan Leech   State College, PA1:56:36.84 20753  801 VISITPA.CO
2Joseph Moody   Watertown, MA1:57:04.34 100678  796 LOUIS GARM
3David Wood   Hendersonville, NC1:57:19.30 205937  1171 BIKE DOCTO
4Greg Kuhn   Sterling Heights, MI1:59:01.49 227915  698 WHOLEFOODS
5Brent Mellen   Thetford Center, VT1:59:36.83 119525  466 PAWLING CY
6JOSHUA PROBST   2:02:46.10  1007 GEAR N UP
7Mathew Katz   Northfield, VT2:04:10.20 116957  862 TEAM BULLD
8ART DEGRAW   2:04:12.29  565 
9Blake Swan   Kingston, NY2:06:25.23 147634  617 OVERLOOK M
10Tom Hopper   Superior Colorado 2:06:43.14 194718  677 BIKEMAN.CO
11Alan Simons   Denver, CO2:10:13.15 172439  789 BIKESOURCE
12John Burns   Hingham, MA2:10:24.54 149237  1369 BIKEMAN.CO
13Barry Petzold   Saugus, MA2:17:48.31 216927  459 RAGE/HARPO
14Doug Jenne   West Hartford, CT2:27:57.82 192813  499 WATCHUNG W
DNFJonathan Favata   Mechanicville , NY 184938  1082 TEAM OVERL
DNFDan Sypniewski   Rochester Hills, MI 229149  761 KONA MIDWE
DNFTomas Tyrychtr   Larchmont, NY 231303  783 JISKRA JAR
DNFAndrew Inglis   Boston, MA 86971  526 

Men - EX - Master - 30-34

 Place Points NameCity, StateTime USAC #BibTeam
1Robert Kelley   Patterson, NY2:01:01.68 148571  1355 PAWLING CY
2Donald Galligher   Bloomington, IN2:01:02.59 180004  525 CHIROPOWER
3Jeffrey Whittingham   Waitsfield, VT2:02:01.67 135428  725 WESTER CYC
4Matthew DeMeis   Pawtucket, RI2:04:02.69 88417  661 BIKEMAN.CO
5Joseph McTague   Saratoga Springs, NY2:04:40.70 172647  1259 NO ATLANTI
6Brian Eckenroth   Burlington, VT2:06:51.07 117555  547 
7Andrew Rigel   Seattle, WA2:08:33.82 77337  432 ELLSWORTH
8Todd Rennie   Charleston, WV2:09:19.01 210122  433 SNOWSHOE/D
9James Davall   Marcy, NY2:12:05.17 41877  557 MVBC & VAR
10Robert Bridgham   Boca Raton, FL2:13:21.82 198363  656 WILDWOOD R
11Maurice Gamanho   Lebanon, NJ2:14:24.88 218359  844 
12Christopher Evans   Holyoke, MA2:19:16.74 197135  822 NCC/BIKERE
13Eric Henricks   Plymouth, MI2:23:05.73 230532  1280 KONA MIDWE
14Michael Sherlock   Staten Island, NY2:24:14.27 174415  1354 BENNETT'S
15Darren Crupi   Essex, CT2:29:37.36 183164  825 HEART OF N
16ANDREW CRAIG   2:32:02.86  643 BIKE LINE
17Jeffrey Robert   Worcester, MA2:36:22.22 107565  444 TEAM BIKE
DNFJohn Ormsby   Vernon, NY 140052  1332 

Men - EX - Master - 35-39

 Place Points NameCity, StateTime USAC #BibTeam
1Stephen Humphreys   Exeter, NH1:59:23.46 138090  696 KHS
2Ben Silberfarb   Norwich, VT2:02:06.95 32650  439 ESSEX COUN
3Gregg Galletta   Dobbs Ferry, NY2:02:15.55 97363  855 WONDERWHEE
4Kurt Dericks   Pompton Plains2:03:00.20 9265  1309 SKYLANDS
5Jonathon Finnoff   South Lake Tahoe, CA2:03:03.57 11652  546 BIKERS EDG
6Yale Iverson   Stow, OH2:03:55.38 125448  517 
7Brian Kelley   Pawling, NY2:04:00.70 133393  1338 PAWLING CY
8Greg Waggoner   New York, NY2:04:57.36 171792  1343 SIDS BIKES
9Bradley Patches   Enfield, NH2:05:15.38 27387  743 BCA/VOMAX
10William Turner   Northboro, MA2:05:19.85 101153  1352 MINUTEMAN
11Brian Beattie   Asheville, NC2:11:16.89 181563  1366 HEARNS CYC
12Guillaume Loize   Brooklyn, NY2:12:39.42 211783  690 BERKSHIRE
13Francis Blesso   Melrose, MA2:12:52.61 183514  657 
14Terry Ritter   Royal Oak, MI2:13:53.67 135609  1138 CITY BIKE
15Mr LE DONNE   2:15:38.06  1157 
16Garin Frost   Williston, VT2:16:37.24 87869  948 VERMONT PR
17Kerry Robbert   Kalamazoo, MI2:17:26.85 214461  1357 STRUCTURAL
18Esteban Rodriguez   Woodside, NY2:17:33.92 153034  880 SID'S BIKE
19Emile Smith   Canaan, NH2:17:43.33 230005  1373 EMS
20Michael Ala   Edgewater, NJ2:24:06.84 179738  599 
21Brian Rutter   Belchertown, MA2:30:53.63 168738  612 BERLIN BIK
22John Meyerle   Monroe, CT2:33:20.49 174385  871 TITUS CYCL
23Rick Barlow   Richmond, VA2:42:50.83 112900  584 
24CRAIG SALVINI   2:43:32.98  712 
25R Todd Crisafulli   San Rafael, CA2:44:48.83 8150  832 NORTH ATLA
26David Stauffer   Lancaster, PA2:50:46.17 195759  423 CYCLEWORKS
27Bryan Mitchell   Northville, MI2:54:45.53 160158  1182 KONA MIDWE
DNFMichael Wonderly   Colchester, CT 114677  779 COGWILD/CA
DNFRobert Campos   Nesconset, NY 101149  672 HVC/JESSIE

Men - EX - Master - 40-44

 Place Points NameCity, StateTime USAC #BibTeam
1Samuel Wilcox   Glastonbury, CT2:00:12.30 38212  722 SEVEN CYCL
2Mark Gunsalus   Dudley, MA2:02:38.54 146710  836 BIKE BARN
3Marco Hellman   San Francisco, CA2:03:01.20 123885  529 TEAM FRALO
4STUART JENSEN   2:04:31.50  508 BENIDORM B
5Thierry Blanchet   Castleton, NY2:05:49.38 190039  645 NORTH ATLA
6Gunnar Shogren   Morgantown, WV2:08:48.91 32526  765 MEREDITH G
7John Myers   East Point, GA2:13:09.70 164658  475 MYERS MECH
8Glenn Giglio   Manchester, CT2:13:42.59 13215  532 CVC PIG IR
9David Kahl   West Milford, NJ2:16:06.59 18414  497 TOWN CYCL
10EDWARD SMITH   2:17:44.11  724 ROAR
11John Nobile   Guilford, CT2:21:52.32 26169  795 
12JOHN FRANCO   2:29:57.89  845 BIKE JUNKY
13Jim Scholefield   Glencoe, IL2:30:38.02 162816  1180 KONA MIDWE
14ROSS BONACCI   2:34:22.90  732 
15Christian Goldschrafe   Lakeville, MN2:39:31.20 129572  531 PEDALSPORT
DNFGreg Ferguson   Glassboro, NJ 11462  816 MEREDITH G
DNFStephen Thaxton   Sissonville, WV 35278  771 HONEY STIN
DNFDan Gagliarde   Hyannis, MA 203453  628 MTBMIND.CO
DNFStephen Wright   Waterbury Center, VT 85493  1359 ONION RIVE
DNFChris Goddard   Rochester Hills, MI 227916  1362 AMERICAN C

Men - EX - Master - 45-49

 Place Points NameCity, StateTime USAC #BibTeam
1Christopher Flagg   Westfield, MA2:04:08.30 179600  561 COMPETETIV
2Robert Koerber   Asheville, NC2:04:27.53 97472  874 
3Charles Miller   Cincinnati, OH2:06:47.29 59393  1291 BIO WHEELS
4Michael Laub   Enola, PA2:06:53.97 230122  512 TAILWIND
5Scott Tucker   Sausalito, CA2:08:48.21 36030  1351 FRALOCK
6Mark Luebbers   Delmar, NY2:10:35.58 21775  697 NAV/PEDROS
7Steve Arsenault   Keene, NH2:10:54.87 211263  577 TEAM ANDY
8Ken Welch   Hopewell Jct, NY2:13:33.46 37650  406 
9Bruce Saxton   West Suffield, CT2:13:36.68 31403  604 
10Christopher Logan   Keene, NH2:15:39.54 21464  1356 DOUGLAS/YA
11Andrew Chambers   Bolton, CT2:16:28.68 210960  807 
12Douglas Phillips   Sanford, ME2:18:01.45 199412  715 TEAM CRUM
13Thomas Barton   Hooksett, NH2:23:17.86 109112  589 S & W SPOR
14Matthew Carpenter   Canton, CT2:32:20.49 6213  806 TEAM EDGE
DNFWilliam Gentile   Lebanon, PA 13043  533 
DNFDonald Snoop   Middleburgh, NY 104325  450 
DNFGilman Lang   Burlington, VT 150896  1361 GMBC/CATAM

Men - EX - Master - 50-54

 Place Points NameCity, StateTime USAC #BibTeam
1Marcus Watters   Altamonte Springs, FL1:27:05.91 105245  615 SOUTHEASTE
2Timothy Messersmith   York, PA1:27:07.83 128500  486 TREK EAST
3Mark Virello   Boston, MA1:28:07.19 171561  1290 TEAM DAYTO
4Roger Gillespie   Provo, UT1:31:26.97 13281  523 BIOGEN-IDE
5Paul Zarubin   Truckee, CA1:33:26.79 196952  413 MT LINCOLN
6Ed Snyder   Ashburnham, MA1:43:00.40 181421  424 GEAR WORKS
DNFJames Argabright   Richardson, TX 98324  585 NEBC/CYCLE
DNFTodd Stall   Poughkeepsie, NY 33775  603 HUDSON VAL

Men - EX - Master - 55-59

 Place Points NameCity, StateTime USAC #BibTeam
1Bob Blatner   Brentwood, CA1:29:57.64 128181  588 BIKES4LIFE
2Phillip Bannister   Putney, VT1:30:25.18 111633  640 PUTNEY/WES
3Raymond Wilson   Little Rock, AR1:34:00.01 38574  970 ORBEA
4David Genest   Keene, NH1:50:48.19 58344  542 
5William Sheldon   Woodstock, NY2:04:38.75 171804  1365 OVERLOOK
6James Carlson   Springfield, VA2:05:06.96 96832  1262 PVC

Men - EX - Master - 60-99

 Place Points NameCity, StateTime USAC #BibTeam
1Charles Beristain   W Hartford, CT1:47:39.67 194152  733 MERCURY BR
2Jurgen Leiser   Colorado Spgs, CO1:57:25.57 20844  502 
3Charles Goodrich   Southport, NC2:04:06.02 182799  522 HUDSON VAL
4Frederic Schmid   Waco, TX2:10:52.08 109257  916 360 CYCLE
5Philip Thompson   Clinton, NY2:26:15.01 35465  1048 MARGARETTH
6Jim Simons   Bozeman, MT2:40:22.43 174588  427 STRONG FRA
7Jerald Bliton   Beaver Falls, PA2:51:49.12 3956  582 TEAM TRI/K
DNFEdmund Brelsford   Marlboro, VT 4733  1065 

Men - BG - Junior - 1-16

 Place Points NameCity, StateTime USAC #BibTeam
1Will Cox   Burlington, VT1:35:38.34 192539  818 PAWLING CY
2CHAD CONNELL   1:41:16.76  1197 
3Eric Roth   Bethany, CT1:59:48.42 192185  455 FAST FRIED
4BEN CHERRINGTON   2:02:45.44  671 
5JAMIE HARGREAVES   2:13:49.52  1325 
DNFDAN DUBOIS     638 
DNFConnor Sallee   Southbury, CT 210129  440 
DNFAaron House   Great Barrington, MA 229608  1319 HOUSATONIC
DNFJEFF NARUS     1341 

Men - BG - Junior - 1-18

 Place Points NameCity, StateTime USAC #BibTeam
1August Freemann   Cairo, NY1:35:29.81 231141  631 WINDHAM MT
2Andy Miller   Elizabethville, PA1:37:46.88 231517  870 BIKELINE
3NOAH MABRY   1:48:04.35  1160 TEAM JIMMY
4Arron Kopp   Schuylerville, NY2:01:15.79 181259  505 BLUE SKY B
5SEAMUS POWELL   2:15:11.91  1220 WINDHAM MT
DNFBRIAN HOEHNE     635 

Men - BG - Senior - 19-24

 Place Points NameCity, StateTime USAC #BibTeam
1TIM RUGGLES   1:47:09.90  1228 
2CHARLES DHEMECOURT   1:47:51.03  652 BOSTON COL
3Samuel Wallace   Goshen, MA1:52:14.71 226668  417 
DNFGARY HOEHNE     630 

Men - BG - Senior - 25-29

 Place Points NameCity, StateTime USAC #BibTeam
1BRIAN WILICHOSKI   1:31:50.05  597 
2SEAN DREW   1:52:31.13  1269 
3LYAL TRESSLER   1:53:07.27  770 
4JOSEPH RUTKOWSKI   2:00:01.72  429 
5ROBERT BIDDLECOMB   2:23:34.77  950 
DNFJim Brockway   Hopewell Junction, NY 223607  1339 PAWLING CY
DNFROBERT TRUITT     1249 
DNFAARON LABRECQUE     504 
DNFFAHARA MAWANI     869 

Men - BG - Master - 30-34

 Place Points NameCity, StateTime USAC #BibTeam
1James Davis   Amherst, NH1:41:11.22 219682  566 
2BENJAMIN LANIN   1:52:32.03  1231 
3RAYMOND MERCADO   1:54:53.87  1328 DEAN BIKES
4Scott Hendrickso   Phoenixville, PA1:59:17.54 244180  537 
5KEITH RODNEY   2:18:33.93  1155 
6MAT MENDEL   2:24:52.34  1342 
7DOUG SALB   2:28:34.95  1326 CRANK RACI
8JEFFREY COLLINS   2:29:47.37  1347 
DNFABRAHAM RODAS     431 
DNFMICHAEL NORIAN     474 
DNFBRIAN SIMMONS     729 
DNFGEM MOOKHERJEA     856 
DNFDAN MCARDLE     980 WING MAN R
DNFTOM GAJESKI     1287 
DNFSCOTT MAHAR     1330 

Men - BG - Master - 35-39

 Place Points NameCity, StateTime USAC #BibTeam
1RICH BLAIR   1:38:40.52  1193 MTBMIND.CO
2CARL RING   1:41:36.67  605 RHINO BIKE
3Brian Spring   Worcester, MA1:41:50.83 200774  1174 
4JOE BARROS   1:42:30.85  646 IRONBOUND
5James Vogh   Methuen, MA1:45:27.64 193760  1106 
6DANIEL HABIG   1:45:57.64  1022 
7JESSE TAYLOR   1:51:50.05  1281 
8MARK DALY   1:58:22.29  1267 
9NICK COHEN   2:06:46.04  1226 
DNFJAMIE RANNEY     1333 
DNFROBERT CERDEIRA     1348 

Men - BG - Master - 40-49

 Place Points NameCity, StateTime USAC #BibTeam
1GEOFFREY HOUSE   1:41:35.56  1318 HOUSATONIC
2BRIAN TUEL   1:48:05.34  1209 SHIRKS BIK
3Joseph McGrath   Poughkeepsie, NY1:50:18.00 101235  467 
4RICH MANDERS   1:51:22.37  480 
5JAMES DEWALD   2:02:47.08  548 SKYLINE BI
6Douglas McBournie   Colchester, CT2:08:52.09 211976  468 
7TOM GALLAGHER   2:15:22.48  682 TOWN CYCLE
8William Russell   Russell, MA2:17:39.60 207737  441 
9MICHAEL NARUS   2:23:08.99  1340 
10Harry Gill   Harrisburg, PA2:31:38.15 209464  846 TEAM HARRI
DNFLUIS GARCIA     921 PROXTEL/MO
DNFPETER FOWLER     1334 

Men - BG - Master - 50-99

 Place Points NameCity, StateTime USAC #BibTeam
1NICK MARZANO   1:53:05.29  974 
2William Turner   Harrison, ME2:04:05.95 192167  419 SEBAGO OUT
3Pete Sullivan   Middletown, CT2:20:09.54 199294  448 
4RICHARD NICOLAYSEN   2:20:20.76  1329 
5Jeffrey Stern   West Milford, NJ2:37:10.99 223882  1005 
6Paul Roth   Bethany, CT2:49:09.10 141080  442 TEAM GO FA
DNFCORY KALITA     923 
DNFPETER EVANS     814 

Men - JR - 1-10

 Place Points NameCity, StateTime USAC #BibTeam
1TAGGART FRANCIS   0:08:48.03  544 
2SAM LONGENBACH   0:10:29.49  491 
3NICK BOUTON   0:12:07.99  587 
4DILLION VAN WART   0:12:08.24  727 TOWN CYCLE
5JARED GAMBINO   0:13:51.34  1256 
6ANDREW PARSONS   0:14:29.96  473 MOUNT SNOW
7CARSON FILLION   0:16:00.98  651 
8SEAN ADLER   0:17:38.15  659 

Men - JR - 11-12

 Place Points NameCity, StateTime USAC #BibTeam
1SHAWN HUDLIN   0:08:00.18  699 
2Trevor Kahl   West Milford, NJ0:08:38.66 229127  506 TOWN CYCLE
3PETER STRIEGEL   0:09:53.17  422 TOWN CYCLE
4JAMES MUCCI   0:09:53.94  624 
5WILLIAM GALLAGHER   0:10:23.76  679 TOWN CYCLE
6ZACHARY MORRISON   0:11:01.79  998 
7RYAN ADLER   0:11:24.73  668 
8JORDAN TYLER   0:12:04.36  1327 
9LANE DRUMMEY   0:12:42.11  931 
10TRISTAN POPLAR   0:13:53.35  705 MOUNT SNOW
11GRIFFIN SPARKS   0:13:56.66  1350 
12SEAN GARDNER   0:13:59.26  524 
13JOHN EICKWORT   0:16:18.43  1068 
14CONOR PORTER   0:21:02.36  714 

Men - JR - 13-14

 Place Points NameCity, StateTime USAC #BibTeam
1Chris Parmer   Burlington, VT0:51:03.40 222360  1235 EARLS CYCL
2Jefffrey Bahnson   Newark, DE0:53:57.14 227837  1335 WOODEN WHE
3EVAN MALLORY   0:54:29.00  1093 WINDHAM MT
4Stephen Carpenter   Canton, CT1:00:55.70 211711  1207 
5ADAM VINING   1:14:31.67  1324 WINDHAM MT
DNFSpencer Pero   Pittsfield, MA 203848  606 BCA/VOMAX

Men - Pro

 Place Points NameCity, StateTime USAC #BibTeam
1GEOFF KABUSH   2:02:34.67  TEAM MAXXIS
2ROLAND GREEN   2:04:12.55  43 KONA/LES GETS
3SEAMUS MCGRATH   2:05:07.48  44 HARO BICYCLES
4Adam Craig   Bend, OR2:05:25.74 94510  GIANT
5MATHIEU TOULOUSE   2:08:08.10  65 TEAM MAXXIS
6Jeremy Horgan-Kobelski   Boulder, CO2:09:47.12 16737  18 SUBARU-GARY FISHER
7Christopher Eatough   Ellicott City, MD2:12:14.57 97632  85 TREK/VW
8TRENT LOWE   2:14:20.79  SUBARU-GARY FISHER
9CHRIS SHEPPARD   2:15:03.49  HARO BICYCLES
10Barry Wicks   Corvallis, OR2:15:40.39 134223  12 KONA/LES GETS
11Nick Waite   Harrisonburg, VA2:15:49.40 146137  48 U23 NATIONAL TEAM
12Carl Decker   Bend, OR2:16:34.71 9007  29 GIANT
13Travis Brown   Durango, CO2:17:47.46 5171  TREK/FRS PLUS
14Todd Wells   Durango, CO2:18:53.55 83401  20 GT/HYUNDI
15BRENT MILLER   2:19:58.51  14 WTB/FOX SHOX/SANTA CRUZ
16Tristan Schouten   Plymouth, WI2:20:17.72 145071  24 TREK MIDWEST
17Eric Jones   Salt Lake City, UT2:20:51.27 18172  BIOGEN-IDEC
18Sam Schultz   Missoula, MT2:21:34.48 164788  16 U23 NATIONAL TEAM
19Jason Sager   Ogden, UT2:22:22.93 31059  19 TEAM HOTEL SAN JOSE
20Charles Pendry   Raleigh, NC2:23:16.76 106096  34 INLAND - BTD
21DEREK ZANDSTRA   2:23:47.14  51 3 ROX RACING
22Douglas Ryden   Colorado Springs, CO2:24:49.78 106147  90 PRO CYCLING
23MILTON MIRANDA   2:24:56.43  78 PROXTEL-MOTOROLA
24Nicholas Ranno   Boulder, CO2:25:00.46 128706  40 TREK ROCKY MTN REGIONAL TEAM
25Alex Hagman   Fort Collins, CO2:26:10.62 173228  36 CANNONDALE MTB TEAM
26Todd Helmick   Newport News, VA2:26:25.79 181000  80 TREK-VW
27Andrew Freye   New Gloucester, ME2:26:39.23 164856  58 OAKLEY
28Brian Smith   Gunnison, CO2:27:24.84 33334  60 TREK/ROCKY MTN REGION
29Edward Ceccolini   Pompton Lakes, NJ2:27:51.77 54209  64 TITUS/MAXMSCHWALBE
30Mike West   Boulder, CO2:28:03.75 37786  37 MAVERICK
31Christian Favata   Rosendale , NY2:28:30.86 135665  70 CAMPMOR/HUTCHINSON
32Alan Obye   Boulder, CO2:28:44.76 117394  11 U23 NATIONAL TEAM
33Matt Shriver   Durango, CO2:29:13.80 110703  31 3D RACING/EASTON
34Nicholas Martin   Boulder, CO2:29:21.26 140177  91 TREK-VW
35DAVID GAGNON   2:29:33.44  81 TEAM QUEBEC
36Ross Schnell   Grand Jct, CO2:30:23.27 99965  72 TOKYO JOES/GO-LITE
37Cody Peterson   Bend, OR2:31:02.58 97506  41 3D RACING
38IAN CARBONNEAU   2:31:27.36  73 EQUIP DU QUBEC
39Josh Bezecny   Golden, CO2:32:01.28 114873  92 3D RACING
40Mark Weir   Novato, CA2:32:34.76 40946  61 WTB/FOX SHOX/SANTA CRUZ
41PETER WEDGE   2:33:37.14  32 KONA/LES GETS
42David Duvall   Baltimore, MD2:33:56.02 10300  87 TREK/VW E COAST
43ALEXANDRE FRAPPIER   2:34:17.70  82 TEAM QUEBEC
44Patrick Bush   San Anselmo, CA2:34:19.00 164281  74 CLIF BAR
45Robert Scott   Wappingers Falls , NY2:35:37.52 32000  89 CANNONDALE
46Thomas Spannring   Longmont, CO2:35:44.57 189584  53 1800 CONTACTS/JANS
47Adam Snyder   Westminster, MA2:36:21.47 122912  52 BALANCE BAR/DEVO
48Andrew Mills   Orlando, FL2:38:23.73 159112  76 TREK-VW
49Earl Bradley   Indialantic, FL2:38:44.25 133173  77 SOUTHEAST TREK-VW/JBL
50John Foley   Fiskdale, MA2:40:03.84 121026  66 BIKE ALLEY
51Michael Patrick   Milford, CT2:41:00.28 77698  63 GARY FISHER/GU/TONYS BIKES
52JEAN-FRANCIS VENNES   2:41:22.48  94 TEAM XCLUZIV
53Bryan Fawley   Denton, TX2:41:40.68 198394  49 WHEELSINMOTION/KENDA
54Jorel Hendershot   Mears, MI2:42:29.57 116140  57 CANNONDALE MTN BIKE
55JEAN PERRON   2:44:24.69  69 FRESH AIR EXPERIENCE
56Kristopher Holden   Spokane, WA2:47:21.96 148376  56 WHEELSPORT/SPECIALIZED
57SEBASTIAN TREMBLAY   2:47:45.00  83 TEAM QUEBEC
58Eric Ransom   Richmond, VA2:50:08.00 150928  54 TAMARACK RESORT/INTENSE
DNSCharles Storm   Sanford, NCDNS 110876  88 INLANDCONST/BTD
DNSJESSE JAKOMAIT   DNS  55 DARK HORSE/GIANT
DNFDominic Gillen   New Preston, CTDNF 91834  67 3 SPORTS
DNFJoshua Powers   Phoenix, AZDNF 91975  86 RED ROCK RACING
DNFSam Jurekovic   Colorado Springs, CODNF 189561  68 U23 NATIONAL TEAM
DNFRobert Cotton   Ann Arbor, MIDNF 190324  59 STRUCTURAL SYSTEM
DNFSean Donovan   Foothill Ranch, CADNF 186481  71 STEVEN K SPORT
DNFJEAN-NICOLAS LAVERTO   DNF  84 DURANOSPORT/ROCKYMTB
DNFAriel Lindsley   Aptos, CADNF 134618  27 MAVERICK
DNFJeremiah Bishop   Harrisonburg, VADNF 3771  TREK/VW
DNFTroy Wells   Durango, CODNF 112599  93 KONA/EASTON/CCA/SRA

Women - SP - 1-18

 Place Points NameCity, StateTime USAC #BibTeam
1PAULA APARICIO   2:09:30.87  592 CANNONDALE

Women - SP - Senior - 19-29

 Place Points NameCity, StateTime USAC #BibTeam
1OLIVIA GOLDFINE   1:51:01.49  1285 BIKEMAN
2ABBIE BRISCOE   1:55:49.50  1317 

Women - SP - Master - 30-39

 Place Points NameCity, StateTime USAC #BibTeam
1CASEY WEBB   1:56:58.06  1167 DARK HORSE
DNFROZANNE PULEO     709 

Women - SP - Master - 40-99

 Place Points NameCity, StateTime USAC #BibTeam
1HEATHER KAHL   2:00:19.14  514 TWON CYCLE
2DAWN KACZOR   2:03:54.91  507 
3VERONICA SASSU   2:32:35.71  1078 

Women - EX - Senior - 19-24

 Place Points NameCity, StateTime USAC #BibTeam
1Lindsey Bishop   Boulder, CO1:43:46.26 198013  809 

Women - EX - Senior - 25-29

 Place Points NameCity, StateTime USAC #BibTeam
1Kim Jennings   Waco, TX1:35:51.01 222697  860 BICYCLES O
2Elizabeth Schauer   Morgantown, WV1:37:49.48 172363  877 MEREDITH G
3Amylynn Peterson   Knoxville, TN1:41:39.37 212603  1360 HAMMER NUT
4Chrissy Bono   San Diego, CA1:45:29.20 217983  1245 ADAMS AVE/
5Teri Strayer   Cary, NC1:48:12.50 162388  772 BACKBONE R
6Bess Arendall   Redwood City, CA1:53:35.34 204207  591 

Women - EX - Master - 30-34

 Place Points NameCity, StateTime USAC #BibTeam
1Tanya Nestvogel   Morganton, NC1:33:40.04 191402  850 TITUS/AWCT
2Jane Adams   Pound Ridge, NY1:36:56.20 212760  1188 TITUS
3Bryna Nestor   Troy, NY1:37:11.76 209883  614 
4Kim Passafiume   Auburn, CA1:38:11.13 206432  627 BICYCLES P
5Krista Park   Madison, SD1:39:06.86 203842  1278 COLAVITA/T
6Tiffany Pezzulo   Salt Lake City, UT1:46:08.38 89443  1063 BIOGEN-IDE
7Rebecca Ryan   Barre, VT2:03:12.49 185264  879 
8Debbie Baker   Louisville, KY2:10:19.41 180437  740 BIO WHEELS
9Christine Ford   Coralville, IA2:24:42.01 41642  545 

Women - EX - Master - 35-39

 Place Points NameCity, StateTime USAC #BibTeam
1Marianne Stover   North Yarmouth, ME1:34:14.88 150507  785 IF/KEMPNER
2Carolyn VanVurst   Boca Raton, FL1:37:16.43 196051  407 RACERS EDG
3Roxanne Prescott   Newfane, VT1:38:12.02 103077  1107 MOUNT SNOW
4Sinead Fitzgibbon   Sag Harbor, NY1:39:25.88 173808  853 LIPTON TEA
5Erin Duggan   Avon, CT1:42:49.49 189709  660 MTBCHICK/C
6Pauline Frascone   Plainfield, CT1:43:59.90 200866  1368 
7Christine Putnam   East Bend, NC1:46:03.96 150905  1364 CHAMPION-H
8Laura Jensen   Windsor, CT1:51:15.01 190960  516 BENIDORM/E

Women - EX - Master - 40-99

 Place Points NameCity, StateTime USAC #BibTeam
1Mary Longhofer   Portland, ME1:44:00.09 189989  1349 BIKEMAN.CO
2Lydia Barter   N Brookfield, MA1:50:53.34 2763  734 TEAM BICYC
3Ellen White   Hohokus, NJ1:51:14.71 97355  601 MTBCHICK.C
4Mary Scheerer   Sag Harbor, NY2:10:31.23 93872  746 
5Margaret Thompson   Clinton, NY2:15:34.85 35453  1047 MACKAY RIP

Women - BG - Junior - 1-18

 Place Points NameCity, StateTime USAC #BibTeam
1EMILY STRIEGEL   1:33:12.84  1014 

Women - BG - Senior - 19-29

 Place Points NameCity, StateTime USAC #BibTeam
1MARNIE BYRD   1:00:47.22  1018 
2KATE TURNER   1:05:16.23  1242 SEBAGO OUT
3Kyra Kenwood   Miller Place, NY1:09:20.34 222906  1337 
4Desma DeGraw   Flagstaff1:21:35.52 225596  556 
5MEREDITH JOHNSON   1:25:10.91  1194 

Women - BG - Master - 30-39

 Place Points NameCity, StateTime USAC #BibTeam
1RANDI SHOL   0:59:36.55  1316 HEBRON
2CHRISSY COHEN   1:00:45.68  1225 

Women - BG - Master - 40-99

 Place Points NameCity, StateTime USAC #BibTeam
1ANNE NOGA   0:57:47.85  608 HARPOON
2ANGELA BARRETT   1:00:29.74  1266 
3LINDA RUTERBORIES   1:03:18.14  1346 BIKEMAN

Women - JR - 1-10

 Place Points NameCity, StateTime USAC #BibTeam
1STEPHANIE PARSONS   0:21:02.26  461 MOUNT SNOW

Women - JR - 1-18

 Place Points NameCity, StateTime USAC #BibTeam
1Essence Barton   Thousand Oak, CA1:35:18.59 179924  667 DEVO DIRTY
2Hilary Wright   Park City, UT1:36:31.79 162477  1371 BALANCE BA
3Stephanie White   Bedford, NH1:36:37.85 181386  718 GEARWORKS/
4Danae York   Boulder, CO1:39:02.47 178290  405 VELOBUM.CO
5Stephanie Schlaack   Mckinney, TX1:47:37.30 169043  701 CANNONDALE
6Deidre York   Boulder, CO1:49:15.93 178289  414 VELOBUM.CO
7Ashley Drake   Sunderland, MA1:57:43.77 186383  649 COMPETITIV
8Chloe Jackson   East Hampton, CT2:01:15.55 181210  834 BIKERS EDG
9Ketura Hendershot   Mears, MI2:23:59.69 174026  528 CANNONDALE

Women - JR - 11-12

 Place Points NameCity, StateTime USAC #BibTeam
1EMILY SENNING   0:12:55.21  1336 
2MARIA CARLUCCI   0:12:59.37  969 

Women - JR - 13-14

 Place Points NameCity, StateTime USAC #BibTeam
1Elizabeth White   Bedford, NH1:01:44.32 209806  723 
2LINSEY WRIGHT   1:10:57.88  1331 DEVO

Women - Pro

 Place Points NameCity, StateTime USAC #BibTeam
1Alison Dunlap   Colorado Springs, CO1:52:31.07 10194  LUNA WOMENS MTB TEAM
2Shonny Vanlandingham   Captain Cook, HI1:54:02.71 89955  LUNA WOMENS MTB TEAM
3Dara Marks-Marino   Flagstaff, AZ1:56:10.82 144461  FORD/SPECIALIZED
4Willow Koerber   Durango, CO1:56:33.19 77103  SUBARU-GARY FISHER
5Kelli Emmett   Plymouth Mi1:56:49.12 156146  FORD/SPECIALIZED
6KATERINA HANUSOVA   1:57:26.74  LUNA WOMENS MTB TEAM
7Heather Irmiger   Boulder, CO1:57:45.49 109232  11 TOKYO JOES/GO LITE
8Susan Haywood   Harrisonburg, VA1:58:54.52 117585  24 TREK-VOLKSWAGEN
9Zephanie Blasi   Vail, AZ2:04:41.13 156031  14 KENDA/DT SWISS/GU
10Georgia Gould   Fort Collins, CO2:06:34.75 183192  49 TAMARACK
11Kerry Barnholt   Mountain View, CA2:07:10.14 150226  SUBARU-GARY FISHER
12Jenna Zander   Mankato, MN2:07:56.36 160568  52 CANNONDALE
13LEA DAVISON   2:08:01.43  16 BALANCE BAR/DEVO
14Kyia Malenkovich   Saint Cloud, MN2:10:16.48 130424  38 HEADMETHOD.COM
15Paula Burks   Chattanooga, TN2:12:37.25 5542  55 DEFEET
16Cassandra Perkins   Asheville, NC2:12:59.38 161585  54 LAND ROVER TOURING SPORT
17ANNE-MARIE JOBIN   2:13:06.26  50 XCLUZIV/TEAM QUEBEC
18Kathy Sherwin   Heber City, UT2:13:33.45 173633  18 BIOGEN-IDEC
19Megan Monroe   Boulder, CO2:14:15.14 178944  51 PCW CYCLING
20Laura Bowles   Asheville, NC2:14:49.72 199307  57 INLANDCONST/BTD
21Caitlyn Tuel   Golden, CO2:15:06.34 168652  32 PENN STATE
22Shannon Gibson   Durango, CO2:15:57.34 156279  47 CRAZY CAT CYCLERY/YETI GRASSROOTS
23NINA BAUM   2:16:24.29  20 CANNONDALE
24Heather Svahn   Truckee, CA2:16:54.00 112034  36 RENO WHEELMAN/THE BACKCOUNTRY
25Theresa Richardson   Davidsonville, MD2:17:13.83 170227  37 CANNONDALE MTN BIKE TEAM
26Lorien Lightfield   Boise, ID2:18:17.00 98936  56 TAMARACK
27Sue Abbene   Salt Lake City, UT2:18:49.53 221321  43 BIOGEN-IDEC
28Becca Blay   Boulder, CO2:19:42.48 174258  41 TEAM DEAN
29Kristi Lewis   Durango, CO2:20:46.32 21089  39 SUN & SKI SPORTS
30CAROLINE VILLENEUVE   2:21:31.06  46 QUIPE DU QUEBEC
31Rebecca Gross   Golden, CO2:21:45.10 176014  35 SUN AND SKI SPORTS
32LEANNE SCHOENFELD   2:22:10.83  58 MTBMIND
33Laura Anderson   Crested Butte, CO2:23:12.08 165743  42 BICYCLE JOHNS
34Kristy Mantz   Marlinton, WV2:23:33.16 115465  59 SNOWSHOW/DIRTBEAN.COM
35Alicia Hamilton   Colorado Springs, CO2:23:52.04 175005  23 DARK HORSE/GIANT
36Tiffany Mann   Somerville, MA2:24:15.34 102493  45 INDEPENDENT FABRICATION
37Heather Roberts   Phoenicia, NY2:26:24.71 143758  53 OVERLOOK
38Mary Lynn Wikar   Vernon, CT2:27:47.28 150092  31 TITUS TITANIUM
39Kimberly Flynn   Greensboro, NC2:29:43.57 122752  48 DEFEET
40JESSICA WOODARD   2:30:52.97  60 SLINGSHOT
41Sara Bresnick-Zocchi   Arlington, MA2:33:33.69 166426  15 FORD/SPECIALIZED
DQSusan Schubel   Saginaw, MI 179648  33 DARK HORSE BREWERY
DNFChenoah Hendershot   Mears, MI 174025  34 CANNONDALE
DNFTrudi Franzel   Richmond Hill, GA 201599  40 SCOTT USA
DNFLacey Gonzalez   Lansford, PA 200479  61 SHIRKS BIKE SHOP
DNFAbigail Hippely   Santa Cruz, CA 184801  21 MAVERICK

Report missing or incorrect license numbers

Volkswagen
ShimanoUSACDFBonk BreakerSpySierra Nevada
UCI USA Cycling is the official governing body for all disciplines of competitive cycling in the United States. The 501c3, membership-based organization aims both to achieve sustained success in international cycling competition and to grow competitive cycling in America while delivering an exceptional customer experience.
View Children's Online Privacy Protection Policy
US Olympic Committee